Regional Weather Roundup
Issued by NWS

Home | Current Version | Previous Version | Graphics & Text | Print | Product List | Glossary On
Versions: 1 2 3 4 5 6 7 8 9 10 11 12 13 14 15 16 17 18 19 20 21 22 23 24 25 26 27 28 29 30 31 32 33 34 35 36 37 38 39 40 41 42 43 44 45 46 47 48 49 50
428
ASUS43 KIND 141509
RWRIN

WEATHER ROUNDUP FOR INDIANA
NATIONAL WEATHER SERVICE INDIANAPOLIS IN
1000 AM EST SUN FEB 14 2016

NOTE: "FAIR" INDICATES FEW OR NO CLOUDS BELOW 12,000 FEET WITH NO
SIGNIFICANT WEATHER AND/OR OBSTRUCTIONS TO VISIBILITY.

* - STATION DOES NOT REPORT WEATHER SUCH AS PRECIPITATION OR FOG.

+ - STATION NOT QUALITY CONTROLLED BY THE NATIONAL WEATHER SERVICE.
    USE DATA WITH CAUTION...ESPECIALLY DEWPOINT AND RELATIVE
    HUMIDITY OBSERVATIONS.

INZ001>003-010>013-019-020-141600-
NORTHWEST INDIANA

CITY           SKY/WX    TMP DP  RH WIND       PRES   REMARKS
GARY /AIRPORT/ CLOUDY    16   1  53 SE14      30.30F WCI   1
KNOX *+        CLOUDY    14   3  62 SE16      30.34F WCI  -2
LA PORTE +     CLOUDY    13   4  69 SE15      30.34F WCI  -3
MICHIGAN CITY+ SUNNY     12   3  67 SE10      30.35F WCI  -1
MONTICELLO +   CLOUDY    15   0  50 SE13G21   30.32F WCI   1
RENSSELAER +   CLOUDY    18   0  45 SE16      30.29F WCI   3
VALPARAISO     CLOUDY    13   5  70 E16       30.30F WCI  -3

$$

LMZ046-743>745-141600-
SOUTHERN LAKE MICHIGAN

STATION/POSITION TIME  TEMP    WIND        PRES    WAVE
                       AIR SEA DIR/SP/G            HT
                 (UTC) (F)     (DEG/KT/KT) (MB)    (FT)
BURNS HARBOR     1400   13     130/  7/ 21 1028.8F
MICHIGAN CITY    1400   11     100/ 10/ 13   N/A

$$

INZ004-005-014>016-021>024-141600-
NORTH CENTRAL INDIANA

CITY           SKY/WX    TMP DP  RH WIND       PRES   REMARKS
ELKHART        CLOUDY    12   1  62 MISG      30.39F
GOSHEN         SUNNY     11   2  67 SE9       30.39F WCI  -2
LOGANSPORT +   CLOUDY    16   1  53 SE17      30.35F WCI   0
PERU/GRISSOM   CLOUDY    14   5  68 SE17      30.32F WCI  -3
ROCHESTER +    CLOUDY    14   1  57 SE12      30.37F WCI   0
SOUTH BEND     CLOUDY    10   2  69 SE16      30.37F WCI  -7
WARSAW +       CLOUDY    14   3  62 SE10G16   30.38F WCI   1

$$

INZ006>009-017-018-025>027-141600-
NORTHEAST INDIANA

CITY           SKY/WX    TMP DP  RH WIND       PRES   REMARKS
ANGOLA *+      SUNNY      9   1  72 SE9       30.39F WCI  -5
AUBURN +       CLOUDY    14   5  67 E6        30.42F WCI   5
FORT WAYNE     PTSUNNY   14   5  67 SE12      30.42F WCI   0
HUNTINGTON +   SUNNY     12  -1  55 SE12G18   30.40F WCI  -2

$$

INZ028-029-035-036-043>045-051>053-141600-
WEST CENTRAL INDIANA

CITY           SKY/WX    TMP DP  RH WIND       PRES   REMARKS
CRAWFORDSVL +  FLURRIES  15   4  62 SE16      30.30F WCI  -1
GREENCASTLE +  CLOUDY    18   7  62 SE14G21   30.31F WCI   4
LAFAYETTE      CLOUDY    17   5  59 SE15      30.30F WCI   2
TERRE HAUTE    CLOUDY    18  11  74 SE15      30.30F WCI   4

$$

INZ030>032-037>040-046>048-054>057-064-065-141600-
CENTRAL INDIANA

CITY           SKY/WX    TMP DP  RH WIND       PRES   REMARKS
COLUMBUS       CLOUDY    16  10  79 SE13      30.39  WCI   2
FRANKFORT +    CLOUDY    17  -2  42 E17       30.34F WCI   2
GREENWOOD *+   CLOUDY    16  10  79 SE12      30.34F WCI   3
INDIANAPOLIS   FLURRIES  16   8  71 SE18      30.32F WCI   0
-EAGLE CREEK   FLURRIES  15   7  70 SE14G21   30.33F WCI   0
KOKOMO *+      CLOUDY    14   3  62 SE17      30.35F WCI  -3
MARION +       CLOUDY    12  -2  53 SE13      30.37F WCI  -3
MT COMFORT *+  CLOUDY    16   5  62 SE15G21   30.35F WCI   1
SHELBYVILLE    LGT SNOW  17   7  64 SE16      30.35F WCI   2
ZIONSVILLE +   PTSUNNY   15   6  65 SE17      30.33F WCI  -1

$$

INZ033-034-041-042-049-050-058-059-141600-
EAST CENTRAL INDIANA

CITY           SKY/WX    TMP DP  RH WIND       PRES   REMARKS
MUNCIE         CLOUDY    14   3  61 SE10      30.37F WCI   1

$$

INZ060-061-067>069-081>083-085>088-141600-
SOUTHWEST INDIANA

CITY           SKY/WX    TMP DP  RH WIND       PRES   REMARKS
EVANSVILLE     CLOUDY    24  13  62 SE12G21   30.30F WCI  13
HUNTINGBURG *+ CLOUDY    19   9  63 E16       30.31F WCI   5
WASHINGTON +   CLOUDY    19  13  76 SE18G24   30.31F WCI   4

$$

INZ062-063-066-070>080-084-089>092-141600-
SOUTH CENTRAL AND SOUTHEAST INDIANA

CITY           SKY/WX    TMP DP  RH WIND       PRES   REMARKS
BEDFORD +      CLOUDY    18  14  86 E15       30.32F WCI   3
BLOOMINGTON    CLOUDY    17  10  74 SE14      30.30F WCI   3
MADISON *+     CLOUDY    18  12  79 E10       30.38F WCI   6
NORTH VERNON + LGT SNOW  18  10  73 SE3       30.38F
SEYMOUR +      CLOUDY    19  12  73 SE10G16   30.37F WCI   8

$$





USA.gov is the U.S. government's official web portal to all federal, state and local government web resources and services.